GW6074 Weather Reports


Display with metric or nautical units.
time (UTC)temp
F
wind
direction
speed
MPH
gust
MPH
rain 1hr
in
rain 24hr
in
rain mn
in
humidity
%
barometer
mb
20260504150952 59 184 12.0 15.0 0.00 0.21 0.21 84
20260504150449 59 77 8.0 10.0 0.00 0.21 0.21 83
20260504140915 58 219 13.0 15.0 0.00 0.20 0.20 81
20260504140411 58 190 12.0 18.0 0.00 0.20 0.20 81
20260504130337 59 160 9.0 17.0 0.00 0.20 0.20 80
20260504120300 60 213 9.0 22.0 0.00 0.20 0.20 76
20260504110224 56 139 11.0 19.0 0.00 0.20 0.20 84
20260504100147 56 187 12.0 15.0 0.00 0.20 0.20 83
20260504090110 57 237 8.0 14.0 0.52 0.20 0.20 81
20260504081541 58 225 19.0 23.0 0.00 0.03 0.03 83
20260504081036 58 221 9.0 13.0 0.00 0.03 0.03 81
20260504080533 59 245 12.0 19.0 0.00 0.03 0.03 79
20260504050346 57 116 2.0 3.0 0.00 0.00 0.00 72
20260504045843 57 223 2.0 4.0 0.00 0.05 0.05 74
20260504045338 57 163 2.0 6.0 0.00 0.05 0.05 73
20260504044835 57 174 1.0 4.0 0.00 0.05 0.05 73
20260504044332 57 167 3.0 6.0 0.00 0.05 0.05 73
20260504043830 57 40 3.0 9.0 0.00 0.05 0.05 73
20260504043326 57 180 3.0 9.0 0.00 0.05 0.05 74
20260504042823 57 132 1.0 2.0 0.00 0.05 0.05 73
20260504042320 57 165 2.0 7.0 0.00 0.05 0.05 73
20260504041816 58 190 1.0 2.0 0.00 0.05 0.05 73
20260504041312 58 193 2.0 3.0 0.00 0.05 0.05 72
20260504040809 58 151 1.0 2.0 0.00 0.05 0.05 73
20260504040306 58 160 2.0 3.0 0.00 0.05 0.05 72
20260504035802 58 150 1.0 7.0 0.00 0.05 0.05 72
20260504035259 58 186 3.0 9.0 0.00 0.05 0.05 72
20260504034757 58 106 3.0 6.0 0.00 0.05 0.05 71
20260504034254 58 192 3.0 7.0 0.00 0.05 0.05 72
20260504033751 59 100 3.0 10.0 0.00 0.05 0.05 70
20260504033249 59 188 2.0 10.0 0.00 0.05 0.05 70
20260504032745 59 135 6.0 11.0 0.00 0.05 0.05 70
20260504032242 59 193 5.0 15.0 0.00 0.05 0.05 71
20260504031739 59 240 2.0 11.0 0.00 0.05 0.05 72
20260504031237 59 171 3.0 7.0 0.00 0.05 0.05 72
20260504030732 60 131 2.0 4.0 0.00 0.05 0.05 70
20260504030230 60 192 2.0 15.0 0.00 0.05 0.05 69
20260504025726 60 194 3.0 6.0 0.00 0.05 0.05 68
20260504025223 60 192 4.0 7.0 0.00 0.05 0.05 69
20260504024720 60 218 2.0 3.0 0.00 0.05 0.05 68
20260504024217 60 168 1.0 6.0 0.00 0.05 0.05 67
20260504023713 60 211 9.0 18.0 0.00 0.05 0.05 66
20260504023209 60 116 2.0 10.0 0.00 0.05 0.05 68
20260504022706 60 190 3.0 7.0 0.00 0.05 0.05 68
20260504022202 60 118 3.0 7.0 0.00 0.05 0.05 67
20260504021700 61 180 2.0 8.0 0.00 0.05 0.05 67
20260504021156 61 74 2.0 13.0 0.00 0.05 0.05 67
20260504020653 61 124 4.0 6.0 0.00 0.05 0.05 67
20260504020149 61 158 2.0 8.0 0.00 0.05 0.05 67
20260504015646 61 64 2.0 6.0 0.00 0.05 0.05 66
20260504015142 60 221 4.0 9.0 0.00 0.05 0.05 68
20260504014638 60 114 2.0 7.0 0.00 0.05 0.05 68
20260504014135 60 156 5.0 7.0 0.00 0.05 0.05 69
20260504013633 60 180 2.0 7.0 0.00 0.05 0.05 69
20260504013130 61 170 3.0 7.0 0.00 0.05 0.05 67
20260504012627 61 212 3.0 4.0 0.07 0.05 0.05 67
20260504012125 61 127 2.0 4.0 0.12 0.05 0.05 68
20260504011621 61 232 2.0 3.0 0.12 0.04 0.04 68
20260504011118 62 129 1.0 6.0 0.19 0.03 0.03 66
20260504010614 63 157 2.0 4.0 0.12 0.02 0.02 62
20260504010110 64 181 5.0 14.0 0.00 0.00 0.00 54
20260504005607 64 155 2.0 4.0 0.00 0.00 0.00 53
20260504005104 64 251 6.0 9.0 0.00 0.00 0.00 53
20260504004602 64 184 4.0 8.0 0.00 0.00 0.00 54
20260504004059 65 221 3.0 8.0 0.00 0.00 0.00 54
20260504003555 65 80 1.0 6.0 0.00 0.00 0.00 53
20260504003052 65 100 2.0 8.0 0.00 0.00 0.00 50
20260504002548 65 200 3.0 8.0 0.00 0.00 0.00 50
20260504002046 66 174 5.0 11.0 0.00 0.00 0.00 49
20260504001544 66 218 10.0 14.0 0.00 0.00 0.00 48
20260504001039 67 206 3.0 11.0 0.00 0.00 0.00 46
20260504000537 67 210 8.0 14.0 0.00 0.00 0.00 45
20260504000034 67 200 8.0 14.0 0.00 0.00 0.00 45
20260503235532 67 185 9.0 14.0 0.00 0.00 0.00 45
20260503235029 67 173 12.0 15.0 0.00 0.00 0.00 45
20260503234526 67 209 7.0 14.0 0.00 0.00 0.00 45
20260503234025 67 212 8.0 14.0 0.00 0.00 0.00 45
20260503233520 68 221 9.0 15.0 0.00 0.00 0.00 45
20260503233017 68 217 14.0 21.0 0.00 0.00 0.00 44
20260503232514 68 196 11.0 17.0 0.00 0.00 0.00 44
20260503232012 68 191 9.0 14.0 0.00 0.00 0.00 44
20260503231509 68 192 7.0 16.0 0.00 0.00 0.00 44
20260503231006 69 213 6.0 14.0 0.00 0.00 0.00 43
20260503230502 69 197 8.0 18.0 0.00 0.00 0.00 43
20260503230000 69 213 15.0 19.0 0.00 0.00 0.00 42
20260503225456 69 220 13.0 18.0 0.00 0.00 0.00 41
20260503224952 69 206 16.0 21.0 0.00 0.00 0.00 41
20260503224449 69 188 13.0 26.0 0.00 0.00 0.00 41
20260503223947 69 232 11.0 16.0 0.00 0.00 0.00 42
20260503223445 69 233 11.0 21.0 0.00 0.00 0.00 40
20260503222939 69 245 16.0 19.0 0.00 0.00 0.00 41
20260503222439 69 236 14.0 24.0 0.00 0.00 0.00 41
20260503221936 69 252 12.0 18.0 0.00 0.00 0.00 40
20260503221435 69 261 14.0 18.0 0.00 0.00 0.00 42
20260503220931 69 214 9.0 14.0 0.00 0.00 0.00 41
20260503220428 69 220 13.0 21.0 0.00 0.00 0.00 42
20260503215925 69 241 17.0 25.0 0.00 0.00 0.00 40
20260503215421 69 243 15.0 24.0 0.00 0.00 0.00 42
20260503214919 69 257 13.0 22.0 0.00 0.00 0.00 42
20260503214416 69 232 14.0 21.0 0.00 0.00 0.00 42
20260503213914 69 240 10.0 17.0 0.00 0.00 0.00 43
20260503213411 69 199 12.0 21.0 0.00 0.00 0.00 41
20260503212908 69 206 14.0 23.0 0.00 0.00 0.00 41
20260503212406 68 205 12.0 21.0 0.00 0.00 0.00 42
20260503211902 68 190 12.0 25.0 0.00 0.00 0.00 42
20260503211359 68 208 11.0 19.0 0.00 0.00 0.00 44
20260503210854 68 204 16.0 26.0 0.00 0.00 0.00 41
20260503210352 68 209 16.0 22.0 0.00 0.00 0.00 42
20260503205847 68 216 13.0 24.0 0.00 0.00 0.00 43
20260503205344 67 217 11.0 25.0 0.00 0.00 0.00 42
20260503204840 67 198 16.0 24.0 0.00 0.00 0.00 42
20260503204337 67 228 26.0 35.0 0.00 0.00 0.00 42
20260503203834 67 202 12.0 33.0 0.00 0.00 0.00 43
20260503203332 67 248 18.0 23.0 0.00 0.00 0.00 42
20260503202829 67 263 14.0 21.0 0.00 0.00 0.00 41
20260503202327 67 188 19.0 24.0 0.00 0.00 0.00 41
20260503201825 66 202 21.0 29.0 0.00 0.00 0.00 42
20260503201321 66 201 21.0 32.0 0.00 0.00 0.00 42
20260503200819 66 209 16.0 24.0 0.00 0.00 0.00 43
20260503200315 67 211 21.0 24.0 0.00 0.00 0.00 42
20260503195812 66 194 11.0 22.0 0.00 0.00 0.00 44
20260503195309 66 207 22.0 33.0 0.00 0.00 0.00 43
20260503194806 66 206 24.0 31.0 0.00 0.00 0.00 43
20260503194302 65 244 15.0 27.0 0.00 0.00 0.00 45
20260503193758 65 174 11.0 27.0 0.00 0.00 0.00 44
20260503193254 66 223 19.0 25.0 0.00 0.00 0.00 43
20260503192750 65 198 14.0 27.0 0.00 0.00 0.00 46
20260503192246 65 230 16.0 23.0 0.00 0.00 0.00 44
20260503191743 65 224 14.0 24.0 0.00 0.00 0.00 46
20260503191240 64 253 12.0 22.0 0.00 0.00 0.00 48
20260503190737 64 256 17.0 27.0 0.00 0.00 0.00 46
20260503190233 64 260 18.0 24.0 0.00 0.00 0.00 46
20260503185730 64 220 21.0 27.0 0.00 0.00 0.00 47
20260503185226 64 249 13.0 23.0 0.00 0.00 0.00 49
20260503184721 63 204 16.0 23.0 0.00 0.00 0.00 47
20260503184217 63 221 16.0 27.0 0.00 0.00 0.00 50
20260503183714 64 192 18.0 24.0 0.00 0.00 0.00 46
20260503183211 63 220 13.0 26.0 0.00 0.00 0.00 50
20260503182709 63 199 16.0 19.0 0.00 0.00 0.00 47
20260503182208 63 208 17.0 21.0 0.00 0.00 0.00 50
20260503181703 63 217 11.0 19.0 0.00 0.00 0.00 48
20260503181200 63 241 15.0 23.0 0.00 0.00 0.00 49
20260503180657 63 222 15.0 19.0 0.00 0.00 0.00 47
20260503180156 63 215 18.0 23.0 0.00 0.00 0.00 49
20260503175652 63 281 20.0 23.0 0.00 0.00 0.00 48
20260503175149 62 232 17.0 22.0 0.00 0.00 0.00 49
20260503174645 62 247 20.0 23.0 0.00 0.00 0.00 48
20260503174143 62 263 12.0 25.0 0.00 0.00 0.00 48
20260503173638 62 212 12.0 25.0 0.00 0.00 0.00 51
20260503173135 62 288 14.0 22.0 0.00 0.00 0.00 48
20260503172632 61 210 14.0 17.0 0.00 0.00 0.00 53
20260503172129 61 217 16.0 23.0 0.00 0.00 0.00 52
20260503171625 61 234 12.0 22.0 0.00 0.00 0.00 53
20260503171123 61 207 14.0 18.0 0.00 0.00 0.00 50
20260503170620 61 215 13.0 22.0 0.00 0.00 0.00 52
20260503170116 62 213 13.0 21.0 0.00 0.00 0.00 49